This demonstration page uses our WeatherBlox Daily Observations layout. Learn more.

Left ArrowRight Arrow

36.19886, -115.1175

Hourly Observations for August 1, 2017

Temp ( °F °C ) Dew Point ( °F °C ) Humidity (%) Winds ( mph kmh ) Pressure ( in mb ) Visibility ( mi km ) Precip ( " mm )
12:53 am 00:53 Clear 92 33.3 50 10 24 24 N 7 11 29.87 1011 10 16 N/A
1:53 am 01:53 Clear 90 32.2 50 10 25 25 N N/A 29.87 1011 10 16 N/A
2:53 am 02:53 Clear 90 32.2 50 10 25 25 N N/A 29.88 1012 10 16 N/A
3:53 am 03:53 Clear 88 31.1 50 10 27 27 NW 5 7 29.88 1012 10 16 N/A
4:53 am 04:53 Clear 86 30 51 10.6 30 30 NNW 6 9 29.88 1012 10 16 N/A
5:53 am 05:53 Sunny 87 30.6 52 11.1 30 30 NW 3 6 29.90 1013 10 16 N/A
6:53 am 06:53 Sunny 88 31.1 54 12.2 31 31 N N/A 29.91 1013 10 16 N/A
7:53 am 07:53 Sunny 91 32.8 54 12.2 28 28 N N/A 29.93 1013 10 16 N/A
8:53 am 08:53 Sunny 95 35 50 10 22 22 ESE 8 13 29.93 1014 10 16 N/A
9:53 am 09:53 Sunny 98 36.7 51 10.6 20 20 ESE 5 7 29.93 1014 10 16 N/A
10:53 am 10:53 Sunny 100 37.8 49 9.4 18 18 VRB 3 6 29.92 1013 10 16 N/A
11:53 am 11:53 Sunny 102 38.9 47 8.3 15 15 ESE 7 11 29.91 1013 10 16 N/A
12:53 pm 12:53 Sunny 104 40 46 7.8 14 14 ESE 6 9 29.89 1012 10 16 N/A
1:53 pm 13:53 Sunny 104 40 48 8.9 15 15 VRB 3 6 29.86 1011 10 16 N/A
2:53 pm 14:53 Sunny 106 41.1 45 7.2 13 13 SSE 9 15 29.84 1010 10 16 N/A
3:53 pm 15:53 Sunny 107 41.7 45 7.2 12 12 S 6 9 29.81 1010 10 16 N/A
4:53 pm 16:53 Sunny 107 41.7 44 6.7 12 12 S 6 9 29.78 1009 10 16 N/A
5:53 pm 17:53 Sunny 106 41.1 43 6.1 12 12 S 8 13 29.78 1008 10 16 N/A
6:53 pm 18:53 Sunny 106 41.1 44 6.7 12 12 SSW 8 13 29.78 1009 10 16 N/A
7:53 pm 19:53 Clear 105 40.6 44 6.7 13 13 S 7 11 29.80 1009 10 16 N/A
8:53 pm 20:53 Clear 97 36.1 58 14.4 27 27 SSW 17 28 29.84 1010 10 16 N/A
9:53 pm 21:53 Clear 94 34.4 58 14.4 30 30 S 22 35 29.86 1011 10 16 N/A
10:53 pm 22:53 Clear 92 33.3 58 14.4 32 32 S 18 30 29.88 1012 10 16 N/A
11:53 pm 23:53 Clear 92 33.3 56 13.3 30 30 S 16 26 29.89 1012 10 16 N/A

Powered by AerisWeather